SCP
0 0 0 0 0 0 0 0 0 0 0 0 0 0 0 0 0 0 0 0 0 0 0 0 0 0 0 0 0 0 5 5 5 5 4 3 2 1 1 1 1 1 1 1
0 0 0 0 0 0 0 0 0 0 0 0 0 0 0 0 0 0 0 0 0 0 0 0 0 0 0 0 0 0 2 6 6 4 3 2 1 0 0 0 0 1 2 2
0 0 0 0 0 0 0 0 0 0 0 0 0 0 0 0 0 0 -0 -0 -0 -0 0 0 0 0 0 0 0 0 0 3 5 3 1 0 0 1 1 1 0 1 2 2
0 0 0 0 0 0 0 0 0 0 0 0 0 0 0 -0 0 0 0 0 -0 -0 -0 0 0 0 -0 0 0 0 0 1 2 0 0 0 0 0 0 1 1 1 2 2
0 0 0 0 0 0 -0 0 0 0 0 0 0 0 0 0 0 0 0 0 0 0 -0 -0 0 0 0 0 0 0 0 0 1 0 0 0 0 0 0 1 2 2 2 2
0 0 0 0 0 0 0 0 0 0 0 0 0 0 0 0 0 0 0 0 -0 0 0 0 -0 0 0 0 0 0 0 0 0 0 0 0 0 0 1 2 2 2 2 2
0 0 0 0 0 0 0 0 0 0 0 0 0 0 0 0 0 0 -0 0 0 0 0 0 0 -0 0 0 0 0 0 0 0 0 0 0 0 0 0 1 3 3 2 2
0 0 0 0 0 0 0 0 0 0 0 0 0 0 0 -0 0 0 0 0 -0 -0 0 0 0 0 0 0 0 0 0 0 0 0 0 0 0 0 0 1 3 3 2 2
0 0 0 0 0 0 0 0 0 0 0 0 0 0 0 0 0 0 -0 -0 -0 0 0 0 0 0 0 0 0 0 0 0 0 0 0 0 0 0 1 3 3 2 2 2
0 0 0 0 0 0 0 0 0 0 0 0 0 0 -0 0 0 -0 -0 -0 -0 0 0 0 0 0 0 0 0 0 0 0 0 0 0 0 1 1 2 3 2 1 1 2
0 0 0 0 0 0 0 0 0 0 0 0 -0 0 0 0 -0 -0 -0 -0 -0 0 -0 0 0 0 0 0 0 0 0 0 0 0 0 2 1 2 3 3 1 1 1 1
0 0 0 0 0 0 0 0 0 0 0 0 0 0 0 0 -0 0 -0 -0 -0 0 0 0 0 0 1 1 1 1 0 0 0 1 2 2 2 2 2 2 1 1 1 1
0 0 0 0 0 0 0 0 0 0 0 0 0 -0 0 -0 0 -0 -0 -0 0 0 0 0 0 0 0 1 1 1 0 2 2 2 2 3 2 2 1 1 1 1 1 0
0 0 0 0 0 0 0 -0 0 0 0 0 0 -0 -0 -0 -0 -0 -0 0 0 0 0 0 0 0 0 1 1 0 2 2 3 3 3 2 1 1 0 0 0 0 0 0
0 0 0 0 0 0 -0 -0 -0 0 0 0 -0 -0 -0 -0 -0 0 -0 0 0 0 0 0 0 0 1 1 1 1 2 3 4 4 2 1 1 1 0 0 0 0 0 0
0 0 0 -0 0 0 -0 -0 -0 -0 0 0 -0 -0 0 -0 -0 -0 -0 0 0 0 0 0 0 0 0 0 0 1 3 4 3 2 1 1 1 0 0 0 0 0 0 0
0 0 0 0 0 0 0 0 0 0 0 0 -0 0 0 -0 -0 -0 -0 -0 0 0 -0 0 0 0 0 -0 0 0 1 2 2 1 1 1 1 0 0 0 0 0 0 0
0 0 0 0 0 0 0 0 0 0 0 0 -0 0 0 0 -0 -0 -0 0 -0 -0 0 0 0 0 0 -0 0 0 0 1 1 1 1 0 0 0 0 0 0 0 0 0
0 0 0 0 0 0 0 0 0 0 0 -0 0 -0 -0 -0 0 -0 -0 0 -0 -0 -0 0 0 0 0 -0 -0 0 0 1 1 1 0 0 0 0 0 0 0 0 0 0
0 0 0 0 0 0 0 0 0 0 0 0 0 -0 -0 -0 0 0 0 0 -0 -0 -0 0 0 0 -0 -0 -0 0 0 0 1 0 0 0 0 0 0 0 0 0 0 0
0 0 0 0 0 0 0 0 0 0 0 0 0 -0 -0 -0 0 -0 -0 -0 0 -0 -0 0 0 0 0 -0 -0 0 0 0 0 0 0 0 0 0 0 0 0 0 0 0
0 0 0 0 0 0 0 0 0 0 0 0 0 -0 -0 0 -0 0 -0 0 0 -0 -0 0 -0 0 0 0 -0 0 -0 0 0 0 0 0 0 0 0 0 0 0 0 0
0 0 0 0 0 0 0 0 0 0 0 0 0 0 0 -0 0 -0 -0 0 0 -0 -0 0 0 0 0 0 -0 -0 0 0 0 0 0 0 0 0 0 0 0 0 0 0
0 0 0 -0 0 -0 0 0 0 0 0 -0 0 0 0 -0 0 -0 -0 0 0 -0 -0 0 -0 0 0 0 0 0 0 -0 0 0 0 0 0 0 0 0 0 0 0 0
0 0 0 -0 0 -0 0 0 0 0 0 0 0 -0 -0 -0 0 0 -0 0 0 -0 0 0 0 0 0 0 0 -0 -0 -0 0 0 0 0 0 0 0 0 0 0 0 0
0 0 -0 0 0 0 0 0 0 -0 0 0 -0 -0 -0 -0 0 0 0 0 0 0 0 0 0 0 0 0 -0 -0 0 0 0 0 0 0 0 0 0 -0 0 -0 -0 -0
Wind_Speed_500mb
13 7 7 16 15 23 14 17 14 9 12 15 25 37 29 23 26 28 43 44 56 65 70 96 76 83 82 76 53 83 93 80 86 73 60 59 63 65 66 68 59 56 57 59
13 7 11 12 13 11 17 23 24 9 10 16 19 40 34 26 22 35 42 53 53 71 76 78 81 82 87 83 90 59 87 84 84 76 68 63 53 67 67 60 56 62 57 51
5 17 21 15 9 17 12 17 19 27 29 27 17 34 26 26 24 37 42 52 63 61 70 78 83 81 91 84 89 81 76 86 87 79 72 69 69 70 66 64 63 66 55 50
14 17 11 6 4 6 8 14 27 27 17 12 9 31 33 23 15 18 35 46 56 68 74 83 82 85 88 100 84 84 71 92 92 81 83 83 74 72 70 62 68 61 51 56
20 8 14 8 2 4 11 17 26 26 16 14 20 10 29 28 39 35 31 54 68 74 82 84 90 83 89 99 99 83 72 87 104 93 84 77 70 64 60 60 61 55 55 58
20 12 5 12 8 9 14 10 10 10 6 12 15 11 34 25 28 26 27 46 54 71 81 87 94 88 81 90 104 85 82 74 103 94 87 74 65 61 56 63 55 52 52 56
8 6 4 8 5 9 1 6 8 10 6 11 3 12 24 22 21 26 25 38 64 74 71 85 91 90 84 75 99 94 82 85 99 91 84 75 64 59 54 57 53 51 52 61
3 11 7 12 5 9 11 11 7 11 6 21 7 15 13 14 17 28 31 45 58 73 80 76 81 93 101 90 89 93 74 95 94 84 80 73 70 61 55 56 51 54 50 60
4 8 11 17 14 4 8 7 8 6 1 3 9 14 15 5 12 21 30 46 61 78 86 92 70 80 88 89 92 92 88 92 91 88 81 75 69 64 63 62 49 51 55 55
5 15 13 11 15 11 11 8 3 3 5 8 9 13 18 10 20 23 27 39 67 89 93 90 83 71 81 78 89 93 90 94 90 82 71 67 64 62 66 63 56 57 53 57
3 6 8 11 9 9 6 5 3 2 5 6 9 10 13 14 15 22 28 52 61 69 78 76 65 64 57 80 95 89 93 96 88 71 64 64 61 52 55 62 62 57 54 58
5 5 8 19 34 26 14 10 8 7 4 7 8 19 7 10 16 14 27 44 64 67 66 68 70 56 23 48 56 54 56 52 53 54 53 48 41 44 53 61 58 56 57 54
4 4 10 12 9 9 3 5 7 4 2 14 7 11 4 18 18 16 39 62 72 49 6 73 74 61 46 25 34 43 40 40 42 46 46 42 45 48 53 54 50 55 59 58
14 10 14 15 19 10 29 34 29 22 7 11 20 25 21 26 20 16 38 51 50 15 20 72 79 63 31 25 38 41 44 42 47 51 48 47 44 48 54 55 57 58 59 53
10 11 14 27 35 37 40 39 37 32 25 16 20 15 20 26 19 16 21 41 40 33 49 72 73 53 37 20 23 39 39 59 64 58 52 49 51 50 58 58 55 55 53 50
4 12 7 33 34 36 42 40 33 27 20 10 16 18 7 28 32 20 30 36 39 47 38 50 69 78 39 33 6 19 41 63 64 58 55 59 63 62 59 55 58 52 52 52
7 7 5 9 14 23 15 18 16 8 3 6 9 7 8 11 21 22 39 27 25 44 54 62 75 79 75 58 8 20 53 61 59 60 65 69 66 58 49 51 50 53 54 47
14 7 5 10 11 6 10 9 8 6 6 12 11 8 12 19 39 44 43 19 47 52 70 77 74 83 72 35 31 39 56 62 63 66 70 68 54 53 55 55 51 51 47 44
29 9 5 6 5 18 19 7 3 4 11 3 5 9 16 36 50 42 31 54 63 58 64 69 68 71 54 47 30 20 41 58 68 71 64 64 54 60 52 51 48 51 49 43
9 9 6 3 4 9 10 8 13 6 10 7 7 12 12 20 21 33 69 88 88 76 65 64 65 60 44 46 22 41 48 45 64 71 67 59 56 52 55 53 50 47 45 43
5 6 14 14 9 13 11 10 7 7 8 18 21 37 33 16 29 71 87 91 73 69 68 62 59 56 50 51 38 54 58 32 71 59 58 55 53 55 58 56 46 44 44 41
12 8 8 7 10 13 14 10 11 13 19 33 50 51 52 69 70 73 66 73 70 67 66 51 57 53 51 55 11 50 65 42 51 57 64 61 56 55 51 49 43 42 41 39
6 9 5 11 12 13 16 14 35 48 55 50 37 49 45 69 68 81 68 62 74 64 62 52 55 56 43 46 11 59 34 41 65 61 59 59 55 48 43 45 44 43 38 40
8 9 7 13 10 22 51 53 49 50 47 48 50 39 38 66 70 61 71 66 73 59 56 51 51 47 39 38 7 47 33 39 65 62 61 64 55 53 45 42 37 40 40 36
19 20 13 17 28 37 46 33 61 55 61 55 51 54 59 65 68 58 72 75 77 65 60 49 48 44 46 33 12 54 44 52 63 59 63 70 60 51 51 43 40 35 29 26
11 10 12 23 33 31 42 68 70 67 53 41 61 66 58 62 78 66 70 76 65 61 55 49 43 36 39 28 48 40 47 74 73 73 79 68 57 53 48 44 48 38 30 27
Wind_Direction_500mb
315 62 268 257 216 239 258 273 295 294 264 275 282 280 288 289 287 294 301 302 303 299 294 269 261 260 264 261 269 239 227 218 213 212 214 216 224 232 236 242 253 262 264 274
8 282 253 259 304 327 324 313 318 315 299 283 285 283 286 280 269 267 283 291 291 300 297 290 277 259 257 261 260 255 228 220 210 214 225 231 249 242 242 250 258 267 271 268
196 250 290 317 349 357 341 325 335 322 317 314 295 279 284 288 282 290 290 291 296 297 294 297 289 276 258 255 260 254 237 224 218 223 222 228 231 236 244 252 259 268 263 262
261 264 306 275 304 74 327 300 304 294 303 287 303 285 290 304 304 305 303 298 294 299 298 298 297 287 267 254 258 253 252 234 224 231 221 226 234 237 249 256 268 265 261 258
246 318 280 276 150 285 261 301 286 288 267 292 269 263 285 298 290 287 286 288 292 292 295 296 294 296 286 271 254 248 256 241 230 226 230 226 231 242 256 264 258 255 254 254
239 255 152 178 225 216 252 289 328 290 214 248 269 204 282 279 275 276 287 287 299 299 289 283 287 285 286 276 260 254 250 258 227 223 230 232 237 247 256 254 246 246 249 247
326 287 216 160 252 303 38 55 327 330 348 246 323 303 253 270 274 294 328 346 329 317 316 292 282 283 278 283 262 247 244 237 221 220 229 236 246 251 252 247 242 242 243 241
289 320 24 354 252 252 302 170 183 271 281 290 292 247 263 296 44 346 348 336 331 326 311 306 291 281 278 276 260 238 229 220 216 221 228 241 247 247 247 242 242 239 240 241
347 254 330 299 306 77 284 250 207 232 323 51 242 276 281 356 330 338 328 325 319 318 315 311 302 286 273 272 251 231 222 219 219 222 234 240 242 247 245 240 239 239 236 238
291 293 216 269 326 300 147 234 298 330 282 269 277 269 262 322 307 316 309 316 314 308 310 310 312 290 272 245 239 227 223 214 223 230 233 235 243 248 245 235 234 234 230 229
323 205 274 327 232 240 300 296 171 129 211 241 300 254 201 247 274 291 314 322 310 308 307 309 314 315 269 231 231 228 226 225 227 220 226 233 235 237 240 232 231 237 225 213
198 242 284 264 274 273 211 209 150 123 269 262 222 274 53 236 249 295 308 319 314 307 302 309 321 322 252 183 183 190 192 195 198 206 217 224 230 232 222 230 233 218 210 205
183 257 302 315 359 10 320 229 212 157 146 220 239 274 262 262 258 302 324 337 318 322 277 297 318 311 284 252 216 204 212 214 212 207 206 216 223 221 226 217 209 201 198 197
177 206 195 248 271 243 284 282 277 246 216 253 255 286 294 295 284 279 331 321 312 351 231 289 307 312 306 258 243 226 220 214 211 199 200 207 211 208 199 195 196 201 200 189
168 239 225 249 265 267 263 277 280 272 260 247 269 239 264 263 253 248 298 318 342 41 287 305 329 326 332 314 245 216 211 199 194 190 188 194 190 183 188 190 190 179 178 177
232 280 265 288 274 266 269 269 272 275 255 264 270 287 277 275 251 298 294 303 321 293 311 327 341 359 3 348 302 215 198 185 181 183 187 182 181 177 180 183 169 170 169 172
238 252 288 267 331 309 290 277 236 215 274 226 265 268 327 315 301 315 297 293 281 313 333 345 347 353 4 0 237 276 201 187 186 186 179 174 171 172 170 172 171 171 175 173
219 183 234 292 341 285 234 25 58 327 214 312 301 270 291 307 308 305 301 327 321 334 333 340 341 355 16 5 331 282 214 194 185 178 168 164 164 167 164 164 168 169 172 175
200 163 234 255 207 271 289 150 132 187 269 259 278 307 317 318 322 311 308 314 315 322 330 331 339 350 12 8 342 335 183 189 178 168 165 164 169 166 169 168 165 171 174 179
95 105 193 202 245 266 250 153 166 109 295 235 275 277 273 314 313 302 317 320 318 320 323 320 324 340 352 14 106 155 206 200 172 167 162 164 170 171 165 166 169 174 175 176
175 222 224 243 249 267 228 178 190 122 265 198 266 298 281 251 263 290 305 307 309 310 309 312 316 324 338 333 332 197 233 192 172 161 170 165 161 166 168 168 173 178 183 187
185 203 219 235 229 266 172 177 179 211 263 245 272 273 274 283 291 295 296 295 301 306 307 305 310 312 334 334 315 221 246 171 167 161 158 163 163 159 170 173 174 182 186 191
277 201 213 214 236 256 248 242 294 302 284 280 256 266 270 282 290 295 294 294 298 305 302 294 300 310 335 331 215 227 210 178 168 164 165 164 150 157 166 175 182 185 192 191
302 338 274 316 273 286 284 282 298 289 290 295 282 262 265 277 284 281 290 292 291 300 294 292 302 305 318 314 117 211 215 200 175 170 172 165 159 165 170 179 187 186 181 185
275 297 265 264 281 294 284 287 305 288 297 291 282 288 286 269 273 277 282 279 280 285 284 293 295 295 314 312 223 199 221 198 177 171 169 166 164 166 168 170 170 175 178 185
212 239 296 285 287 285 292 303 308 294 289 292 293 284 272 267 270 270 269 269 270 273 274 281 282 286 325 265 211 258 236 190 180 171 164 165 167 167 168 170 166 167 182 179
Wind_Speed_850mb
13 7 7 16 15 23 14 17 14 9 12 15 25 37 29 23 26 28 43 44 56 65 70 96 76 83 82 76 53 83 93 80 86 73 60 59 63 65 66 68 59 56 57 59
13 7 11 12 13 11 17 23 24 9 10 16 19 40 34 26 22 35 42 53 53 71 76 78 81 82 87 83 90 59 87 84 84 76 68 63 53 67 67 60 56 62 57 51
5 17 21 15 9 17 12 17 19 27 29 27 17 34 26 26 24 37 42 52 63 61 70 78 83 81 91 84 89 81 76 86 87 79 72 69 69 70 66 64 63 66 55 50
14 17 11 6 4 6 8 14 27 27 17 12 9 31 33 23 15 18 35 46 56 68 74 83 82 85 88 100 84 84 71 92 92 81 83 83 74 72 70 62 68 61 51 56
20 8 14 8 2 4 11 17 26 26 16 14 20 10 29 28 39 35 31 54 68 74 82 84 90 83 89 99 99 83 72 87 104 93 84 77 70 64 60 60 61 55 55 58
20 12 5 12 8 9 14 10 10 10 6 12 15 11 34 25 28 26 27 46 54 71 81 87 94 88 81 90 104 85 82 74 103 94 87 74 65 61 56 63 55 52 52 56
8 6 4 8 5 9 1 6 8 10 6 11 3 12 24 22 21 26 25 38 64 74 71 85 91 90 84 75 99 94 82 85 99 91 84 75 64 59 54 57 53 51 52 61
3 11 7 12 5 9 11 11 7 11 6 21 7 15 13 14 17 28 31 45 58 73 80 76 81 93 101 90 89 93 74 95 94 84 80 73 70 61 55 56 51 54 50 60
4 8 11 17 14 4 8 7 8 6 1 3 9 14 15 5 12 21 30 46 61 78 86 92 70 80 88 89 92 92 88 92 91 88 81 75 69 64 63 62 49 51 55 55
5 15 13 11 15 11 11 8 3 3 5 8 9 13 18 10 20 23 27 39 67 89 93 90 83 71 81 78 89 93 90 94 90 82 71 67 64 62 66 63 56 57 53 57
3 6 8 11 9 9 6 5 3 2 5 6 9 10 13 14 15 22 28 52 61 69 78 76 65 64 57 80 95 89 93 96 88 71 64 64 61 52 55 62 62 57 54 58
5 5 8 19 34 26 14 10 8 7 4 7 8 19 7 10 16 14 27 44 64 67 66 68 70 56 23 48 56 54 56 52 53 54 53 48 41 44 53 61 58 56 57 54
4 4 10 12 9 9 3 5 7 4 2 14 7 11 4 18 18 16 39 62 72 49 6 73 74 61 46 25 34 43 40 40 42 46 46 42 45 48 53 54 50 55 59 58
14 10 14 15 19 10 29 34 29 22 7 11 20 25 21 26 20 16 38 51 50 15 20 72 79 63 31 25 38 41 44 42 47 51 48 47 44 48 54 55 57 58 59 53
10 11 14 27 35 37 40 39 37 32 25 16 20 15 20 26 19 16 21 41 40 33 49 72 73 53 37 20 23 39 39 59 64 58 52 49 51 50 58 58 55 55 53 50
4 12 7 33 34 36 42 40 33 27 20 10 16 18 7 28 32 20 30 36 39 47 38 50 69 78 39 33 6 19 41 63 64 58 55 59 63 62 59 55 58 52 52 52
7 7 5 9 14 23 15 18 16 8 3 6 9 7 8 11 21 22 39 27 25 44 54 62 75 79 75 58 8 20 53 61 59 60 65 69 66 58 49 51 50 53 54 47
14 7 5 10 11 6 10 9 8 6 6 12 11 8 12 19 39 44 43 19 47 52 70 77 74 83 72 35 31 39 56 62 63 66 70 68 54 53 55 55 51 51 47 44
29 9 5 6 5 18 19 7 3 4 11 3 5 9 16 36 50 42 31 54 63 58 64 69 68 71 54 47 30 20 41 58 68 71 64 64 54 60 52 51 48 51 49 43
9 9 6 3 4 9 10 8 13 6 10 7 7 12 12 20 21 33 69 88 88 76 65 64 65 60 44 46 22 41 48 45 64 71 67 59 56 52 55 53 50 47 45 43
5 6 14 14 9 13 11 10 7 7 8 18 21 37 33 16 29 71 87 91 73 69 68 62 59 56 50 51 38 54 58 32 71 59 58 55 53 55 58 56 46 44 44 41
12 8 8 7 10 13 14 10 11 13 19 33 50 51 52 69 70 73 66 73 70 67 66 51 57 53 51 55 11 50 65 42 51 57 64 61 56 55 51 49 43 42 41 39
6 9 5 11 12 13 16 14 35 48 55 50 37 49 45 69 68 81 68 62 74 64 62 52 55 56 43 46 11 59 34 41 65 61 59 59 55 48 43 45 44 43 38 40
8 9 7 13 10 22 51 53 49 50 47 48 50 39 38 66 70 61 71 66 73 59 56 51 51 47 39 38 7 47 33 39 65 62 61 64 55 53 45 42 37 40 40 36
19 20 13 17 28 37 46 33 61 55 61 55 51 54 59 65 68 58 72 75 77 65 60 49 48 44 46 33 12 54 44 52 63 59 63 70 60 51 51 43 40 35 29 26
11 10 12 23 33 31 42 68 70 67 53 41 61 66 58 62 78 66 70 76 65 61 55 49 43 36 39 28 48 40 47 74 73 73 79 68 57 53 48 44 48 38 30 27
Wind_Direction_850mb
315 62 268 257 216 239 258 273 295 294 264 275 282 280 288 289 287 294 301 302 303 299 294 269 261 260 264 261 269 239 227 218 213 212 214 216 224 232 236 242 253 262 264 274
8 282 253 259 304 327 324 313 318 315 299 283 285 283 286 280 269 267 283 291 291 300 297 290 277 259 257 261 260 255 228 220 210 214 225 231 249 242 242 250 258 267 271 268
196 250 290 317 349 357 341 325 335 322 317 314 295 279 284 288 282 290 290 291 296 297 294 297 289 276 258 255 260 254 237 224 218 223 222 228 231 236 244 252 259 268 263 262
261 264 306 275 304 74 327 300 304 294 303 287 303 285 290 304 304 305 303 298 294 299 298 298 297 287 267 254 258 253 252 234 224 231 221 226 234 237 249 256 268 265 261 258
246 318 280 276 150 285 261 301 286 288 267 292 269 263 285 298 290 287 286 288 292 292 295 296 294 296 286 271 254 248 256 241 230 226 230 226 231 242 256 264 258 255 254 254
239 255 152 178 225 216 252 289 328 290 214 248 269 204 282 279 275 276 287 287 299 299 289 283 287 285 286 276 260 254 250 258 227 223 230 232 237 247 256 254 246 246 249 247
326 287 216 160 252 303 38 55 327 330 348 246 323 303 253 270 274 294 328 346 329 317 316 292 282 283 278 283 262 247 244 237 221 220 229 236 246 251 252 247 242 242 243 241
289 320 24 354 252 252 302 170 183 271 281 290 292 247 263 296 44 346 348 336 331 326 311 306 291 281 278 276 260 238 229 220 216 221 228 241 247 247 247 242 242 239 240 241
347 254 330 299 306 77 284 250 207 232 323 51 242 276 281 356 330 338 328 325 319 318 315 311 302 286 273 272 251 231 222 219 219 222 234 240 242 247 245 240 239 239 236 238
291 293 216 269 326 300 147 234 298 330 282 269 277 269 262 322 307 316 309 316 314 308 310 310 312 290 272 245 239 227 223 214 223 230 233 235 243 248 245 235 234 234 230 229
323 205 274 327 232 240 300 296 171 129 211 241 300 254 201 247 274 291 314 322 310 308 307 309 314 315 269 231 231 228 226 225 227 220 226 233 235 237 240 232 231 237 225 213
198 242 284 264 274 273 211 209 150 123 269 262 222 274 53 236 249 295 308 319 314 307 302 309 321 322 252 183 183 190 192 195 198 206 217 224 230 232 222 230 233 218 210 205
183 257 302 315 359 10 320 229 212 157 146 220 239 274 262 262 258 302 324 337 318 322 277 297 318 311 284 252 216 204 212 214 212 207 206 216 223 221 226 217 209 201 198 197
177 206 195 248 271 243 284 282 277 246 216 253 255 286 294 295 284 279 331 321 312 351 231 289 307 312 306 258 243 226 220 214 211 199 200 207 211 208 199 195 196 201 200 189
168 239 225 249 265 267 263 277 280 272 260 247 269 239 264 263 253 248 298 318 342 41 287 305 329 326 332 314 245 216 211 199 194 190 188 194 190 183 188 190 190 179 178 177
232 280 265 288 274 266 269 269 272 275 255 264 270 287 277 275 251 298 294 303 321 293 311 327 341 359 3 348 302 215 198 185 181 183 187 182 181 177 180 183 169 170 169 172
238 252 288 267 331 309 290 277 236 215 274 226 265 268 327 315 301 315 297 293 281 313 333 345 347 353 4 0 237 276 201 187 186 186 179 174 171 172 170 172 171 171 175 173
219 183 234 292 341 285 234 25 58 327 214 312 301 270 291 307 308 305 301 327 321 334 333 340 341 355 16 5 331 282 214 194 185 178 168 164 164 167 164 164 168 169 172 175
200 163 234 255 207 271 289 150 132 187 269 259 278 307 317 318 322 311 308 314 315 322 330 331 339 350 12 8 342 335 183 189 178 168 165 164 169 166 169 168 165 171 174 179
95 105 193 202 245 266 250 153 166 109 295 235 275 277 273 314 313 302 317 320 318 320 323 320 324 340 352 14 106 155 206 200 172 167 162 164 170 171 165 166 169 174 175 176
175 222 224 243 249 267 228 178 190 122 265 198 266 298 281 251 263 290 305 307 309 310 309 312 316 324 338 333 332 197 233 192 172 161 170 165 161 166 168 168 173 178 183 187
185 203 219 235 229 266 172 177 179 211 263 245 272 273 274 283 291 295 296 295 301 306 307 305 310 312 334 334 315 221 246 171 167 161 158 163 163 159 170 173 174 182 186 191
277 201 213 214 236 256 248 242 294 302 284 280 256 266 270 282 290 295 294 294 298 305 302 294 300 310 335 331 215 227 210 178 168 164 165 164 150 157 166 175 182 185 192 191
302 338 274 316 273 286 284 282 298 289 290 295 282 262 265 277 284 281 290 292 291 300 294 292 302 305 318 314 117 211 215 200 175 170 172 165 159 165 170 179 187 186 181 185
275 297 265 264 281 294 284 287 305 288 297 291 282 288 286 269 273 277 282 279 280 285 284 293 295 295 314 312 223 199 221 198 177 171 169 166 164 166 168 170 170 175 178 185
212 239 296 285 287 285 292 303 308 294 289 292 293 284 272 267 270 270 269 269 270 273 274 281 282 286 325 265 211 258 236 190 180 171 164 165 167 167 168 170 166 167 182 179